Location: Newark
(30.1000°N, 109.4667°E)
Time: 19:33:40
(UTC+00:00)

Vanguard 1 - All Passes

Search period start: 21 February 2020 00:00
Search period end: 02 March 2020 00:00
Orbit: 650 x 3833 km, 34.2° (Epoch: 20 February)

Date Brightness Start Highest point End Pass type
(mag) Time Alt. Az. Time Alt. Az. Time Alt. Az.
21 Feb - 01:15:45 10° WSW 01:38:21 87° SSE 01:51:37 10° ENE daylight
21 Feb - 03:45:38 10° W 04:03:11 73° N 04:12:17 10° E daylight
21 Feb - 06:14:09 10° WNW 06:25:48 82° SSW 06:32:03 10° ESE daylight
21 Feb - 08:40:47 10° W 08:45:16 18° SW 08:48:44 10° S daylight
21 Feb - 20:51:25 10° S 21:08:11 26° SE 21:24:04 10° E visible
21 Feb - 23:10:53 10° SW 23:33:52 61° SSE 23:50:46 10° ENE daylight
22 Feb - 01:37:38 10° WSW 01:59:54 85° NNW 02:12:41 10° ENE daylight
22 Feb - 04:07:49 10° W 04:24:39 74° N 04:33:20 10° E daylight
22 Feb - 06:35:51 10° WNW 06:46:44 64° SSW 06:52:44 10° SE daylight
22 Feb - 21:10:22 10° SSW 21:29:22 34° SE 21:47:01 10° E visible
22 Feb - 23:31:47 10° SW 23:55:20 70° SSE 00:12:06 10° ENE daylight
23 Feb - 01:59:43 10° W 02:21:31 80° NNW 02:33:47 10° ENE daylight
23 Feb - 04:29:54 10° WNW 04:46:04 79° N 04:54:21 10° E daylight
23 Feb - 06:57:35 10° WNW 07:07:28 47° SW 07:13:12 10° SE daylight
23 Feb - 19:19:03 10° SSE 19:25:49 12° SE 19:32:49 10° ESE visible
23 Feb - 21:29:59 10° SSW 21:50:34 43° SE 22:09:17 10° ENE visible
23 Feb - 23:53:02 10° WSW 00:16:53 80° SSE 00:33:20 10° ENE daylight
24 Feb - 02:21:56 10° W 02:43:10 76° N 02:54:54 10° E daylight
24 Feb - 04:51:53 10° WNW 05:07:24 87° NNE 05:15:19 10° ESE daylight
24 Feb - 07:19:30 10° W 07:28:00 33° SW 07:33:20 10° SSE daylight
24 Feb - 19:34:03 10° SSE 19:46:53 19° SE 20:00:25 10° E visible
24 Feb - 21:50:05 10° SSW 22:11:50 53° SE 22:31:07 10° ENE visible
25 Feb - 00:14:35 10° WSW 00:38:31 88° SSE 00:54:31 10° ENE daylight
25 Feb - 02:44:12 10° W 03:04:50 75° N 03:16:02 10° E daylight
25 Feb - 05:13:45 10° WNW 05:28:34 81° SSW 05:36:10 10° ESE daylight
25 Feb - 07:41:49 10° W 07:48:23 21° SW 07:52:59 10° S daylight
25 Feb - 19:51:59 10° S 20:07:51 27° SE 20:24:44 10° E visible
25 Feb - 22:10:36 10° SW 22:33:10 63° SSE 22:52:43 10° ENE visible
26 Feb - 00:36:23 10° WSW 01:00:14 85° NNW 01:15:43 10° ENE daylight
26 Feb - 03:06:26 10° W 03:26:28 77° N 03:37:09 10° E daylight
26 Feb - 05:35:36 10° WNW 05:49:32 66° SSW 05:56:51 10° SE daylight
26 Feb - 08:05:16 10° WSW 08:08:39 13° SW 08:11:28 10° SSW daylight
26 Feb - 20:10:59 10° SSW 20:28:48 35° SE 20:47:48 10° E visible
26 Feb - 22:31:27 10° SW 22:54:38 72° SSE 23:14:09 10° ENE visible
27 Feb - 00:58:24 10° W 01:22:01 80° N 01:36:56 10° ENE daylight
27 Feb - 03:28:36 10° WNW 03:48:01 81° NNE 03:58:14 10° E daylight
27 Feb - 05:57:28 10° WNW 06:10:18 50° SW 06:17:18 10° SE daylight
27 Feb - 18:20:59 10° SE 18:26:08 11° SE 18:31:35 10° ESE visible
27 Feb - 20:30:36 10° SSW 20:49:48 44° SE 21:10:11 10° ENE visible
27 Feb - 22:52:37 10° WSW 23:16:14 81° SSE 23:35:30 10° ENE daylight
28 Feb - 01:20:33 10° W 01:43:51 77° N 01:58:09 10° E daylight
28 Feb - 03:50:40 10° WNW 04:09:26 89° NNE 04:19:14 10° ESE daylight
28 Feb - 06:19:31 10° WNW 06:30:50 37° SW 06:37:28 10° SSE daylight
28 Feb - 18:35:31 10° SSE 18:46:54 18° SE 18:59:55 10° E visible
28 Feb - 20:50:42 10° SSW 21:10:54 54° SE 21:32:09 10° ENE visible
28 Feb - 23:14:03 10° WSW 23:37:58 89° SSE 23:56:50 10° ENE daylight
29 Feb - 01:42:45 10° W 02:05:42 77° N 02:19:23 10° E daylight
29 Feb - 04:12:39 10° WNW 04:30:42 80° SSW 04:40:06 10° ESE daylight
29 Feb - 06:41:55 10° W 06:51:11 26° SW 06:57:12 10° S daylight
29 Feb - 18:53:26 10° S 19:07:37 26° SE 19:24:28 10° E visible
29 Feb - 21:11:09 10° SW 21:32:09 64° SE 21:53:52 10° ENE visible
29 Feb - 23:35:44 10° WSW 23:59:49 85° NNW 00:18:10 10° ENE daylight
01 Mar - 02:04:57 10° W 02:27:30 79° N 02:40:36 10° E daylight
01 Mar - 04:34:36 10° WNW 04:51:45 67° SSW 05:00:48 10° SE daylight
01 Mar - 07:05:06 10° W 07:11:25 17° SW 07:16:06 10° SSW daylight
01 Mar - 19:12:26 10° SSW 19:28:19 35° SE 19:47:41 10° ENE visible
01 Mar - 21:31:56 10° SW 21:53:34 73° SSE 22:15:26 10° ENE visible
